[[[{"header":{"parameterUnit":"kt","parameterCategory":2,"dx":1,"dy":1,"la1":30.253999710083008,"la2":30.299108505249023,"lo1":-89.0895004272461,"lo2":-89.04439544677734,"nx":28,"ny":28,"refTime":"2022-10-18T21:00:00:Z","depth":0,"parameterNumber":1,"parameterNumberName":"U-component_of_WINDS"},"data":[-1.8098,-1.8125,-1.8131,-1.8164,-1.8175,-1.8198,-1.8208,-1.8221,-1.8233,-1.826,-1.8276,-1.8284,-1.8297,-1.8317,-1.8334,-1.8337,-1.8343,-1.8347,-1.835,-1.8327,-1.8324,-1.8321,-1.8315,-1.8349,-1.8349,-1.8372,-1.8372,-1.8373,-1.8074,-1.8085,-1.8106,-1.8129,-1.8146,-1.8144,-1.8163,-1.8176,-1.8197,-1.8212,-1.823,-1.8254,-1.8274,-1.8287,-1.8306,-1.8317,-1.8317,-1.8321,-1.832,-1.8322,-1.8298,-1.8291,-1.8321,-1.8321,-1.8321,-1.8321,-1.8321,-1.8321,-1.8033,-1.805,-1.8068,-1.8091,-1.8105,-1.812,-1.8137,-1.8147,-1.8167,-1.819,-1.8194,-1.8218,-1.8234,-1.8261,-1.8272,-1.8289,-1.8286,-1.8292,-1.8294,-1.8295,-1.8294,-1.8255,-1.8293,-1.8293,-1.8293,-1.8293,-1.8293,0,-1.8004,-1.8008,-1.803,-1.8052,-1.8069,-1.8087,-1.8105,-1.8115,-1.8127,-1.8143,-1.8166,-1.818,-1.8208,-1.8229,-1.825,-1.826,-1.826,-1.8262,-1.8266,-1.8263,-1.8257,-1.8258,-1.8216,-1.8261,-1.826,-1.826,-1.826,-1.826,-1.796,-1.7982,-1.8005,-1.8019,-1.8031,-1.8054,-1.8068,-1.8078,-1.8092,-1.8115,-1.813,-1.8152,-1.8171,-1.8207,-1.8219,-1.824,-1.824,-1.8255,-1.8243,-1.8238,-1.8237,-1.8235,-1.8236,-1.8257,-1.8258,-1.8258,-1.8258,0,-1.7934,-1.7947,-1.7982,-1.8004,-1.801,-1.8031,-1.8049,-1.8067,-1.8077,-1.8102,-1.8109,-1.8124,-1.8146,-1.8157,-1.8186,-1.819,-1.8219,-1.822,-1.8212,-1.8212,-1.8225,-1.8223,-1.8272,-1.8278,-1.8245,-1.8245,-1.8246,0,-1.7901,-1.7929,-1.7945,-1.7965,-1.7995,-1.8005,-1.8034,-1.8046,-1.8062,-1.8083,-1.8086,-1.8105,-1.8116,-1.8136,-1.8143,-1.8169,-1.8175,-1.8179,-1.818,-1.8178,-1.8177,-1.8185,-1.8183,-1.8186,-1.8186,-1.8186,-1.8185,0,-1.7857,-1.7901,-1.7934,-1.7946,-1.7974,-1.7989,-1.8001,-1.8021,-1.8036,-1.8057,-1.8066,-1.809,-1.8103,-1.812,-1.8129,-1.8119,-1.8162,-1.8152,-1.8166,-1.8166,-1.8175,-1.8174,-1.8216,-1.8185,-1.8185,-1.8185,-1.8185,0,-1.7832,-1.7856,-1.7903,-1.7926,-1.7937,-1.7959,-1.7984,-1.8006,-1.8027,-1.8033,-1.805,-1.8054,-1.8081,-1.8068,-1.8104,-1.8089,-1.81,-1.8108,-1.8109,-1.8111,-1.8097,-1.8116,-1.8157,-1.816,-1.8113,-1.8112,-1.8112,0,-1.7777,-1.783,-1.784,-1.7885,-1.7911,-1.7912,-1.7937,-1.7957,-1.7968,-1.799,-1.8002,-1.8027,-1.8021,-1.8031,-1.8047,-1.806,-1.808,-1.8058,-1.8085,-1.8086,-1.8077,-1.8115,-1.8118,-1.8147,-1.8104,-1.8105,-1.8106,0,-1.7736,-1.7773,-1.7781,-1.7795,-1.7825,-1.7848,-1.7877,-1.7906,-1.792,-1.7944,-1.7966,-1.8005,-1.8,-1.8017,-1.8024,-1.804,-1.8066,-1.8034,-1.8035,-1.8037,-1.8103,-1.8104,-1.8109,-1.8067,-1.8068,-1.8068,-1.81,0,-1.7689,-1.7719,-1.7742,-1.7776,-1.7796,-1.7827,-1.7842,-1.7861,-1.7865,-1.7877,-1.7913,-1.7935,-1.7964,-1.7975,-1.798,-1.8016,-1.8011,-1.8008,-1.7996,-1.8022,-1.8032,-1.8037,-1.7979,-1.7979,-1.7979,-1.7979,0,0,-1.7631,-1.7676,-1.7689,-1.7719,-1.7737,-1.7741,-1.7772,-1.779,-1.7826,-1.7837,-1.7831,-1.7889,-1.7908,-1.7949,-1.7959,-1.7972,-1.7979,-1.7971,-1.801,-1.8014,-1.8017,-1.8028,-1.8033,-1.7978,-1.7978,-1.7978,-1.7978,0,-1.7617,-1.7639,-1.7672,-1.7691,-1.772,-1.7733,-1.774,-1.777,-1.778,-1.7818,-1.782,-1.7844,-1.7892,-1.791,-1.7925,-1.7966,-1.7966,-1.7974,-1.799,-1.8008,-1.8012,-1.8015,-1.8026,-1.8031,-1.7978,-1.7978,-1.7978,0,-1.7577,-1.76,-1.7619,-1.7663,-1.7683,-1.7712,-1.7703,-1.7735,-1.7756,-1.776,-1.7797,-1.7812,-1.7838,-1.7878,-1.7897,-1.7892,-1.7953,-1.7938,-1.794,-1.7942,-1.796,-1.7965,-1.7969,-1.7916,-1.7915,-1.7915,0,0,-1.7563,-1.7594,-1.7623,-1.7662,-1.7674,-1.7694,-1.7712,-1.7719,-1.7745,-1.7755,-1.7774,-1.7798,-1.7825,-1.7843,-1.7871,-1.7913,-1.7918,-1.793,-1.7933,-1.7935,-1.7939,-1.7958,-1.7962,-1.7914,-1.7914,-1.7914,0,0,-1.7557,-1.7592,-1.7593,-1.7641,-1.7665,-1.7697,-1.7719,-1.7721,-1.7748,-1.7746,-1.776,-1.7767,-1.7805,-1.782,-1.7803,-1.7866,-1.7855,-1.7859,-1.7856,-1.786,-1.7862,-1.7857,-1.7798,0,0,0,0,0,-1.7552,-1.7588,-1.7588,-1.7599,-1.7657,-1.7696,-1.7703,-1.7716,-1.7707,-1.7724,-1.774,-1.774,-1.7813,-1.7799,-1.7808,-1.7827,-1.79,-1.7903,-1.7905,-1.791,-1.7914,-1.7917,0,0,0,0,0,0,-1.7556,-1.7569,-1.7587,-1.762,-1.7633,-1.7695,-1.7682,-1.7686,-1.7705,-1.7705,-1.7737,-1.7741,-1.7752,-1.7795,-1.7803,-1.782,-1.7795,-1.7901,-1.7903,-1.7905,-1.7911,-1.7914,-1.7917,0,0,0,0,0,-1.7559,-1.757,-1.766,-1.762,-1.7631,-1.7656,-1.768,-1.7684,-1.7699,-1.7726,-1.773,-1.7707,-1.7753,-1.7761,-1.78,-1.7816,-1.779,-1.7793,-1.7902,-1.7904,-1.7906,-1.7913,0,0,0,0,0,0,-1.7562,-1.7573,-1.7662,-1.7666,-1.7608,-1.7653,-1.7661,-1.7682,-1.7719,-1.7724,-1.7696,-1.7695,-1.7753,-1.7759,-1.7765,-1.7814,-1.7785,-1.7788,-1.779,-1.7904,-1.7905,-1.7906,0,0,0,0,0,0,-1.7567,-1.7576,-1.7664,-1.7649,-1.7651,-1.765,-1.7657,-1.7693,-1.7719,-1.7688,-1.7688,-1.7696,-1.7744,-1.7759,-1.7763,-1.7819,-1.7781,-1.7784,-1.7786,-1.7788,-1.7905,-1.7906,0,0,0,0,0,0,-1.7571,-1.7579,-1.7648,-1.765,-1.7651,-1.7695,-1.7682,-1.774,-1.7707,-1.7686,-1.7705,-1.7703,-1.7743,-1.7748,-1.7762,-1.7816,-1.7818,-1.7781,-1.7783,-1.7785,-1.7786,0,0,0,0,0,0,0,-1.7575,-1.7521,-1.764,-1.765,-1.7652,-1.7701,-1.7702,-1.7704,-1.7707,-1.7706,-1.7705,-1.7704,-1.7764,-1.7767,-1.7771,-1.7813,0,0,-1.7781,-1.7782,0,0,0,0,0,0,0,0,-1.7518,-1.752,-1.764,-1.764,-1.7641,-1.7702,-1.7702,-1.7703,-1.7707,-1.7706,-1.7705,-1.7704,-1.7765,-1.7767,-1.777,0,0,0,0,0,0,0,0,0,0,0,0,0,0,0,-1.764,-1.764,0,-1.7702,-1.7702,-1.7703,-1.7707,-1.7706,-1.7705,-1.7705,-1.7765,-1.7768,-1.777,0,0,0,0,0,0,0,0,0,0,0,0,0,0,0,0,0,0,0,0,0,0,0,0,0,0,0,0,0,0,0,0,0,0,0,0,0,0,0,0,0,0,0,0,0,0,0,0,0,0,0,0,0,0,0,0,0,0,0,0,0,0,0,0,0,0,0,0,0]}],[{"header":{"parameterUnit":"kt","parameterCategory":2,"dx":1,"dy":1,"la1":30.253999710083008,"la2":30.299108505249023,"lo1":-89.0895004272461,"lo2":-89.04439544677734,"nx":28,"ny":28,"refTime":"2022-10-18T21:00:00:Z","depth":0,"parameterNumber":2,"parameterNumberName":"V-component_of_WINDS"},"data":[-4.9458,-4.9519,-4.9523,-4.9594,-4.961,-4.9659,-4.9677,-4.9702,-4.9722,-4.9779,-4.9813,-4.9823,-4.9843,-4.9883,-4.9919,-4.9922,-4.9936,-4.9954,-4.9954,-4.9871,-4.986,-4.9849,-4.9834,-4.9958,-4.9958,-5.0037,-5.0038,-5.0039,-4.9393,-4.941,-4.945,-4.9491,-4.9524,-4.9509,-4.954,-4.9568,-4.9612,-4.9638,-4.9672,-4.9723,-4.9763,-4.9779,-4.9817,-4.9844,-4.9838,-4.9854,-4.985,-4.9853,-4.9766,-4.975,-4.9858,-4.9858,-4.9858,-4.9858,-4.9858,-4.9858,-4.9276,-4.9314,-4.9341,-4.9384,-4.9407,-4.9434,-4.9469,-4.9481,-4.952,-4.9563,-4.956,-4.961,-4.9636,-4.9685,-4.9703,-4.974,-4.9723,-4.9741,-4.9745,-4.9748,-4.9751,-4.963,-4.9747,-4.9747,-4.9747,-4.9746,-4.9746,0,-4.9191,-4.9192,-4.9231,-4.9272,-4.9304,-4.9335,-4.9365,-4.9387,-4.939,-4.9422,-4.9468,-4.9494,-4.9547,-4.9589,-4.9627,-4.9642,-4.9627,-4.9627,-4.9639,-4.9638,-4.9633,-4.9633,-4.9487,-4.9623,-4.9622,-4.9621,-4.9621,-4.962,-4.907,-4.9115,-4.9147,-4.9173,-4.9191,-4.9235,-4.9261,-4.9261,-4.9289,-4.9325,-4.9357,-4.9401,-4.9435,-4.9507,-4.9519,-4.9558,-4.9551,-4.9602,-4.9556,-4.9555,-4.9547,-4.9543,-4.9546,-4.9609,-4.9611,-4.9612,-4.9613,0,-4.9001,-4.9009,-4.9079,-4.9107,-4.9115,-4.9161,-4.9183,-4.9221,-4.9229,-4.9281,-4.9293,-4.9304,-4.9349,-4.9353,-4.9406,-4.9406,-4.9477,-4.9471,-4.9467,-4.9465,-4.9508,-4.9503,-4.9655,-4.9674,-4.9549,-4.9551,-4.9552,0,-4.8899,-4.8958,-4.8966,-4.9006,-4.9071,-4.907,-4.9133,-4.9146,-4.917,-4.9211,-4.9197,-4.9235,-4.9235,-4.9274,-4.9275,-4.9335,-4.9346,-4.9348,-4.9347,-4.9348,-4.9347,-4.936,-4.9352,-4.9348,-4.9347,-4.9346,-4.9346,0,-4.8787,-4.8862,-4.8929,-4.8947,-4.8982,-4.9013,-4.9029,-4.9056,-4.9082,-4.9117,-4.9134,-4.9175,-4.9196,-4.9227,-4.9228,-4.9197,-4.9302,-4.9259,-4.9304,-4.9304,-4.9325,-4.9323,-4.946,-4.9345,-4.9344,-4.9344,-4.9344,0,-4.8705,-4.8743,-4.884,-4.8868,-4.8887,-4.8932,-4.8971,-4.9011,-4.904,-4.9044,-4.9072,-4.9062,-4.9117,-4.9074,-4.9148,-4.9107,-4.9128,-4.9137,-4.914,-4.9143,-4.9093,-4.9165,-4.9298,-4.931,-4.9148,-4.9146,-4.9145,0,-4.8573,-4.8674,-4.8674,-4.8766,-4.8813,-4.8792,-4.8842,-4.8869,-4.8878,-4.8918,-4.8928,-4.8973,-4.8942,-4.8957,-4.8994,-4.9005,-4.9059,-4.8998,-4.905,-4.9052,-4.904,-4.9163,-4.918,-4.9269,-4.9124,-4.9126,-4.9128,0,-4.8471,-4.8516,-4.8533,-4.8552,-4.859,-4.863,-4.8687,-4.8733,-4.8759,-4.8793,-4.8838,-4.8904,-4.8882,-4.8907,-4.8904,-4.8942,-4.9022,-4.8913,-4.8914,-4.893,-4.9116,-4.9131,-4.9146,-4.9011,-4.9014,-4.9016,-4.9112,0,-4.8339,-4.8392,-4.8439,-4.8485,-4.8518,-4.8577,-4.8583,-4.8615,-4.8609,-4.8617,-4.8687,-4.8711,-4.8757,-4.8777,-4.8772,-4.8859,-4.8844,-4.8821,-4.8776,-4.8859,-4.889,-4.8903,-4.8729,-4.8728,-4.8727,-4.8726,0,0,-4.8208,-4.8284,-4.8284,-4.834,-4.8366,-4.8345,-4.8408,-4.8431,-4.8479,-4.8497,-4.8473,-4.857,-4.8591,-4.8674,-4.87,-4.872,-4.8735,-4.8707,-4.882,-4.8831,-4.8841,-4.8874,-4.8888,-4.8724,-4.8724,-4.8723,-4.8723,0,-4.8161,-4.8186,-4.8249,-4.8274,-4.831,-4.8317,-4.8332,-4.8364,-4.8372,-4.8442,-4.8422,-4.8465,-4.8544,-4.8567,-4.8589,-4.8698,-4.8679,-4.8712,-4.8767,-4.881,-4.8822,-4.8832,-4.8867,-4.8881,-4.872,-4.8721,-4.8721,0,-4.8059,-4.8083,-4.8115,-4.8178,-4.8201,-4.8251,-4.8207,-4.8262,-4.8299,-4.8272,-4.8341,-4.8356,-4.8389,-4.8468,-4.8504,-4.8483,-4.8627,-4.8584,-4.8591,-4.8594,-4.8636,-4.865,-4.8663,-4.8494,-4.8493,-4.8492,0,0,-4.8016,-4.8067,-4.8093,-4.8168,-4.8184,-4.8195,-4.8223,-4.822,-4.8251,-4.8264,-4.8282,-4.8312,-4.8357,-4.8387,-4.843,-4.8517,-4.8522,-4.8556,-4.8567,-4.8576,-4.8583,-4.8627,-4.8642,-4.8489,-4.8489,-4.8489,0,0,-4.7996,-4.803,-4.8018,-4.8106,-4.8137,-4.8167,-4.8212,-4.8198,-4.8237,-4.8231,-4.8227,-4.8235,-4.831,-4.8325,-4.8283,-4.8413,-4.837,-4.838,-4.84,-4.8414,-4.8424,-4.8418,-4.824,0,0,0,0,0,-4.7951,-4.8025,-4.8015,-4.803,-4.8109,-4.8173,-4.8183,-4.8182,-4.815,-4.8186,-4.8198,-4.8178,-4.8301,-4.8264,-4.8279,-4.8325,-4.8449,-4.8456,-4.8463,-4.851,-4.8524,-4.8536,0,0,0,0,0,0,-4.7957,-4.7976,-4.8012,-4.8046,-4.8063,-4.8171,-4.8117,-4.8118,-4.8147,-4.8142,-4.8176,-4.8179,-4.8178,-4.8256,-4.8269,-4.8313,-4.8235,-4.8452,-4.8458,-4.8463,-4.8515,-4.8526,-4.8536,0,0,0,0,0,-4.7962,-4.7977,-4.8105,-4.8045,-4.806,-4.8076,-4.8114,-4.8115,-4.8137,-4.8157,-4.8159,-4.8133,-4.818,-4.8191,-4.8264,-4.8307,-4.8226,-4.8231,-4.8456,-4.8461,-4.8465,-4.852,0,0,0,0,0,0,-4.7965,-4.7978,-4.8108,-4.8112,-4.8017,-4.807,-4.8079,-4.8112,-4.815,-4.8153,-4.8114,-4.8109,-4.8182,-4.819,-4.8199,-4.8305,-4.8218,-4.8223,-4.8226,-4.8459,-4.8463,-4.8466,0,0,0,0,0,0,-4.797,-4.7982,-4.811,-4.8075,-4.8075,-4.8065,-4.8072,-4.8135,-4.8151,-4.8104,-4.8102,-4.8111,-4.8168,-4.819,-4.8196,-4.8294,-4.8212,-4.8217,-4.822,-4.8223,-4.8462,-4.8465,0,0,0,0,0,0,-4.7975,-4.7986,-4.8074,-4.8074,-4.8074,-4.8125,-4.8119,-4.82,-4.8122,-4.8103,-4.8115,-4.8111,-4.8168,-4.8175,-4.8195,-4.8289,-4.8293,-4.8212,-4.8216,-4.8218,-4.8219,0,0,0,0,0,0,0,-4.7979,-4.7908,-4.8081,-4.8074,-4.8074,-4.8155,-4.8156,-4.8157,-4.8121,-4.8118,-4.8115,-4.8113,-4.8184,-4.8189,-4.8195,-4.8286,0,0,-4.8212,-4.8214,0,0,0,0,0,0,0,0,-4.7903,-4.7907,-4.8081,-4.8082,-4.8083,-4.8155,-4.8156,-4.8157,-4.812,-4.8118,-4.8116,-4.8114,-4.8185,-4.819,-4.8194,0,0,0,0,0,0,0,0,0,0,0,0,0,0,0,-4.8081,-4.8082,0,-4.8155,-4.8156,-4.8157,-4.812,-4.8118,-4.8116,-4.8115,-4.8187,-4.819,-4.8194,0,0,0,0,0,0,0,0,0,0,0,0,0,0,0,0,0,0,0,0,0,0,0,0,0,0,0,0,0,0,0,0,0,0,0,0,0,0,0,0,0,0,0,0,0,0,0,0,0,0,0,0,0,0,0,0,0,0,0,0,0,0,0,0,0,0,0,0,0]}]]]